Regional Weather Roundup
Issued by NWS

Home | Current Version | Previous Version | Text Only | Print | Product List | Glossary Off
Versions: 1 2 3 4 5 6 7 8 9 10 11 12 13 14 15 16 17 18 19 20 21 22 23 24 25 26 27 28 29 30 31 32 33 34 35 36 37 38 39 40 41 42 43 44 45 46 47 48 49 50

000
ASUS43 KOAX 101810
RWRNE

WEATHER ROUNDUP FOR NEBRASKA
NATIONAL WEATHER SERVICE OMAHA NE
1200 PM CST WED FEB 10 2016

NOTES: SATELLITE DATA IS BEING USED TO AUGMENT CLOUD COVER ABOVE
       12000 FEET.
       "FAIR" INDICATES FEW OR NO CLOUDS BELOW 12,000 FEET WITH NO
       SIGNIFICANT WEATHER AND/OR OBSTRUCTIONS TO VISIBILITY.

  * THESE STATIONS DO NOT REPORT WEATHER SUCH AS RAIN...SNOW OR FOG.

NEZ001>004-019>022-054>056-101900-
NEBRASKA PANHANDLE

CITY           SKY/WX    TMP DP  RH WIND       PRES   REMARKS
SCOTTSBLUFF    SUNNY     56  28  34 NW15      30.04S
6HR MIN TEMP:  31; 6HR MAX TEMP:  56;

ALLIANCE       SUNNY     42  30  62 W8        30.01R
6HR MIN TEMP:  27; 6HR MAX TEMP:  43;

CHADRON        SUNNY     57  27  31 W17       29.99F
6HR MIN TEMP:  29; 6HR MAX TEMP:  57;

KIMBALL        SUNNY     48  28  45 W15       30.09S
SIDNEY         SUNNY     49  28  44 W13       30.05F
6HR MIN TEMP:  22; 6HR MAX TEMP:  49;

$$

NEZ057>060-069>072-079>082-101900-
SOUTHWEST NEBRASKA

CITY           SKY/WX    TMP DP  RH WIND       PRES   REMARKS
NORTH PLATTE   SUNNY     46  29  51 W13       29.95F
6HR MIN TEMP:  22; 6HR MAX TEMP:  47;

IMPERIAL       SUNNY     46  27  47 W18       30.01F
6HR MIN TEMP:  34; 6HR MAX TEMP:  46;

LEXINGTON      SUNNY     44  30  58 NW15      29.93F
MCCOOK         SUNNY     46  28  49 W17       29.98F
6HR MIN TEMP:  27; 6HR MAX TEMP:  46;

OGALLALA       SUNNY     50  25  38 NW24G32   29.99F
$$

NEZ005>010-023>029-035>040-094-101900-
NORTH CENTRAL NEBRASKA

CITY           SKY/WX    TMP DP  RH WIND       PRES   REMARKS
VALENTINE      SUNNY     53  28  38 NW13G23   29.88S
6HR MIN TEMP:  31; 6HR MAX TEMP:  53;

AINSWORTH      SUNNY     55  26  32 NW15G25   29.88S
BROKEN BOW     SUNNY     51  30  44 W10       29.90S
6HR MIN TEMP:  28; 6HR MAX TEMP:  51;

O`NEILL        SUNNY     47  32  56 NW7       29.85S
ORD            SUNNY     44  30  57 W8        29.88S
6HR MIN TEMP:  17; 6HR MAX TEMP:  47;

THEDFORD       SUNNY     59  30  32 NW15      29.91S
$$

NEZ041-046>049-061>064-073>077-083>087-101900-
SOUTH CENTRAL NEBRASKA

CITY           SKY/WX    TMP DP  RH WIND       PRES   REMARKS
GRAND ISLAND   SUNNY     42  29  59 W9        29.89F
6HR MIN TEMP:  20; 6HR MAX TEMP:  42;

AURORA         SUNNY     41  30  64 W10       29.89F
HASTINGS       SUNNY     42  29  59 W12       29.90F
6HR MIN TEMP:  25; 6HR MAX TEMP:  42;

HEBRON         SUNNY     41  30  66 W7        29.92F
HOLDREGE       SUNNY     44  30  57 W8        29.93S
YORK           SUNNY     41  32  70 W7        29.89F
$$

NEZ011>018-030>034-042>045-101900-
NORTHEAST NEBRASKA

CITY           SKY/WX    TMP DP  RH WIND       PRES   REMARKS
NORFOLK        SUNNY     31  25  78 SW5       29.86F WCI  26
6HR MIN TEMP:  23; 6HR MAX TEMP:  32;

ALBION         SUNNY     37  28  68 CALM      29.86F
BLAIR          SUNNY     32  21  64 S7        29.92F WCI  26
COLUMBUS *     SUNNY     36  21  55 W6        29.89F WCI  31
FREMONT        SUNNY     32  21  63 S5        29.92F WCI  27
WAYNE          SUNNY     30  22  74 SE10      29.90F WCI  21
$$

NEZ050>053-065>068-078-088>093-101900-
SOUTHEAST NEBRASKA

CITY           SKY/WX    TMP DP  RH WIND       PRES   REMARKS
LINCOLN        SUNNY     34  25  69 SW9       29.92F WCI  27
6HR MIN TEMP:  26; 6HR MAX TEMP:  34;

OMAHA EPPLEY   MOSUNNY   33  20  58 S9        29.94F WCI  25
6HR MIN TEMP:  24; 6HR MAX TEMP:  33; 6HR PCP: TRACE;

BEATRICE       SUNNY     45  29  55 W10       29.91F
FALLS CITY     MOSUNNY   40  19  43 S14G21    29.94F WCI  32
6HR MIN TEMP:  25; 6HR MAX TEMP:  40;

NEBRASKA CITY  CLOUDY    37  20  50 S8        29.93F WCI  30
PLATTSMOUTH    SUNNY     34  21  60 S8        29.94S WCI  27
$$

NEZ044-045-051>053-067-101900-
OMAHA AREA

CITY           SKY/WX    TMP DP  RH WIND       PRES   REMARKS
OMAHA EPPLEY   MOSUNNY   33  20  58 S9        29.94F WCI  25
6HR MIN TEMP:  24; 6HR MAX TEMP:  33; 6HR PCP: TRACE;

BLAIR          SUNNY     32  21  64 S7        29.92F WCI  26
FREMONT        SUNNY     32  21  63 S5        29.92F WCI  27
MILLARD        SUNNY     34  21  60 S3        29.93F
OFFUTT AFB     SUNNY     35  20  54 S9        29.93F WCI  27
PLATTSMOUTH    SUNNY     34  21  60 S8        29.94S WCI  27
WAHOO          FAIR      32  22  68 SE6       29.92S WCI  26
$$



USA.gov is the U.S. government's official web portal to all federal, state and local government web resources and services.